Location: *
(51.5000°N, 0.1100°W)
Time: 16:43:23
(UTC+00:00)

SJ 16-02 - Pass Details

Date: 25 May 2024
Orbit: 594 x 606 km, 75.0° (Epoch: 16 June)

Event Time Altitude Azimuth Distance (km) Brightness Sun altitude
Exits shadow 02:03:13 16° 184° (S) 1,581 2.9 -12.4°
Maximum altitude 02:06:32 58° 108° (ESE) 700 1.7 -12.2°
Drops below altitude 10° 02:10:47 10° 30° (NNE) 1,941 5.5 -11.8°
Sets 02:13:02 0° 26° (NNE) 2,848 6.9 -11.6°
